Location: Poughquag
(41.6090°N, 73.6820°W)
Time: 14:52:38
(UTC-04:00)

Vanguard 2 - Pass Details

Date: 06 June 2020
Orbit: 552 x 2938 km, 32.9° (Epoch: 06 July)

Event Time Altitude Azimuth Distance (km) Brightness Sun altitude
Rises 15:14:27 0° 206° (SSW) 6,707 12.7 55.1°
Reaches altitude 10° 15:20:02 10° 195° (SSW) 5,758 12.4 54.1°
Maximum altitude 15:33:13 27° 147° (SSE) 4,272 11.5 51.8°
Drops below altitude 10° 15:44:26 10° 98° (E) 4,890 11.4 49.8°
Sets 15:48:34 0° 86° (E) 5,566 11.5 49.0°
